User: anonymous   Login
Location: Unspecified
(0.0000°N, 0.0000°E)
Time: 01:43:22
(UTC+00:00)
Language:

GAS SHIELD (DEBRIS) - Orbit

View from above orbital plane
View from above orbital plane
View from above satellite
View from above satellite

Ground track
Ground track

The orbit data is extracted from the following two-line orbital elements,

1 27612U 02058H   17349.55471451 -.00000012  00000-0  17809-4 0  9992
2 27612  64.5541 176.3739 0035684 333.8910  26.0393 14.79299839807980
Epoch (UTC): 15 December 2017 13:18:47
Eccentricity: 0.0035684
inclination: 64.5541°
perigee height: 606 km
apogee height: 656 km
right ascension of ascending node: 176.3739°
argument of perigee: 333.8910°
revolutions per day: 14.79299839
mean anomaly at epoch: 26.0393°
orbit number at epoch: 80798

The dashed part of the orbit path shows where the satellite is in the earth's shadow,  

DLR